Printer-friendly version

IAU Minor Planet Center

Minor Planet Center

MPEC 2005-T29 : 2005 TM

The following Minor Planet Electronic Circular may be linked-to from your own Web pages, but must not otherwise be redistributed electronically.


Read MPEC 2005-T28 Read MPEC 2005-T30


M.P.E.C. 2005-T29                                Issued 2005 Oct. 4, 17:46 UT

     The Minor Planet Electronic Circulars contain information on unusual
         minor planets and routine data on comets.  They are published
   on behalf of Commission 20 of the International Astronomical Union by the
          Minor Planet Center, Smithsonian Astrophysical Observatory,
                          Cambridge, MA 02138, U.S.A.

                  Supported in part by the Brinson Foundation
             Prepared using the Tamkin Foundation Computer Network

                              MPC@CFA.HARVARD.EDU
          URL http://cfa-www.harvard.edu/iau/mpc.html  ISSN 1523-6714

                                    2005 TM

Observations:
     K05T00M* C2005 10 01.21498 00 16 20.85 +00 42 04.0          20.4 V ET029G96
     K05T00M  C2005 10 01.22077 00 16 17.18 +00 41 55.2          20.9 V ET029G96
     K05T00M  C2005 10 01.22659 00 16 13.51 +00 41 46.6          20.7 V ET029G96
     K05T00M  C2005 10 01.26605 00 15 48.63 +00 40 49.0          20.7 V ET029G96
     K05T00M  C2005 10 01.26917 00 15 46.65 +00 40 44.5          20.7 V ET029G96
     K05T00M  C2005 10 01.27229 00 15 44.67 +00 40 39.9          20.2 V ET029G96
     K05T00M  C2005 10 01.27542 00 15 42.69 +00 40 35.4          20.5 V ET029G96
     K05T00M  C2005 10 03.27317 23 54 23.50 -00 11 16.9          21.4 V ET029G96
     K05T00M  C2005 10 03.27872 23 54 19.65 -00 11 25.8          20.1 V ET029G96
     K05T00M  C2005 10 03.28427 23 54 15.73 -00 11 34.8          19.6 V ET029G96
     K05T00M  C2005 10 03.28984 23 54 11.80 -00 11 43.9          19.5 V ET029G96
     K05T00M  C2005 10 04.19874 23 43 43.70 -00 37 15.1                 ET029734
     K05T00M  C2005 10 04.20691 23 43 37.61 -00 37 29.2          20.2 R ET029734
     K05T00M  C2005 10 04.21563 23 43 31.24 -00 37 44.3          20.3 R ET029734

Observer details:
734 Farpoint Observatory.  Observer G. Hug.  0.7-m reflector + CCD.
G96 Mt. Lemmon Survey.  Observers E. J. Christensen, E. Beshore.  Measurers
    E. C. Beshore, E. J. Christensen, G. J. Garradd, A. D. Grauer, R. E. Hill,
    R. A. Kowalski, S. M. Larson, R. H. McNaught.  1.5-m reflector + CCD.

Orbital elements:
2005 TM
Epoch 2005 Aug. 18.0 TT = JDT 2453600.5                 MPC
M 180.49111              (2000.0)            P               Q
n   1.27834091     Peri.  151.93546     -0.94296595     -0.33260355
a   0.8408237      Node     8.67153     +0.28574507     -0.82997530
e   0.4187522      Incl.    5.24683     +0.17077753     -0.44778999
P   0.77           H   24.7           G   0.15           U   9
Residuals in seconds of arc
051001 G96  0.4+  0.1+    051001 G96  0.1-  0.0     051003 G96  0.5+  0.3+
051001 G96  0.1-  0.2-    051001 G96  0.0   0.1+    051004 734  0.3+  0.0
051001 G96  0.2-  0.3-    051003 G96  1.1-  0.1-    051004 734  0.6-  0.1-
051001 G96  0.1+  0.0     051003 G96  0.1+  0.1+    051004 734  0.4+  0.3-
051001 G96  0.0   0.1+    051003 G96  0.3+  0.2+

Ephemeris:
2005 TM                  a,e,i = 0.84, 0.42, 5                   q = 0.4887
Date    TT    R. A. (2000) Decl.     Delta      r     Elong.  Phase     V
2005 09 27    00 53.18   +02 12.0    0.121    1.121   170.3     8.7    21.0
2005 10 02    00 08.26   +00 23.2    0.102    1.103   173.2     6.2    20.4
2005 10 07    23 08.70   -01 59.3    0.0907   1.081   153.5    24.4    20.8
2005 10 12    22 00.38   -04 28.0    0.0874   1.058   131.5    45.0    21.3
2005 10 17    20 55.06   -06 23.6    0.0922   1.032   110.4    64.8    21.9

Kyle E. Smalley              (C) Copyright 2005 MPC           M.P.E.C. 2005-T29

Read MPEC 2005-T28 Read MPEC 2005-T30


Our Web policy. Index to the CBAT/MPC/ICQ pages.


Valid HTML 4.01!